BAW77Z EGAA-EGPB

Flight info

Callsign BAW77Z
Flight time N/A
Altitude 25000
Route BLACA P600 ADN/N0399F190 Y905 MOCHA
Aircraft A319/M-SDE3FGHIRWY/LB1

Departure

Time N/A
Airport Belfast International Airport (EGAA)

Arrival

Time 2026-05-03 20:44
Airport Sumburgh Airport (EGPB)
Time Latitude Longitude Altitude Speed Heading
2026-05-03 20:15 57.13926 -2.48983 24992 ft 462 kts 33°
2026-05-03 20:15 57.16559 -2.45581 24990 ft 463 kts 33°
2026-05-03 20:15 57.19193 -2.42169 24989 ft 463 kts 33°
2026-05-03 20:15 57.21827 -2.38753 24989 ft 463 kts 33°
2026-05-03 20:16 57.24462 -2.35331 24994 ft 463 kts 33°
2026-05-03 20:16 57.27097 -2.31903 24990 ft 464 kts 33°
2026-05-03 20:16 57.29729 -2.28464 24987 ft 464 kts 33°
2026-05-03 20:16 57.32219 -2.24654 24984 ft 466 kts 41°
2026-05-03 20:17 57.34543 -2.20458 24987 ft 467 kts 42°
2026-05-03 20:17 57.36869 -2.16264 24995 ft 467 kts 42°
2026-05-03 20:17 57.39202 -2.12058 24990 ft 468 kts 41°
2026-05-03 20:17 57.41537 -2.07849 24986 ft 468 kts 41°
2026-05-03 20:18 57.43873 -2.03633 24989 ft 469 kts 41°
2026-05-03 20:18 57.46210 -1.99412 24988 ft 469 kts 42°
2026-05-03 20:18 57.48546 -1.95176 24988 ft 470 kts 42°
2026-05-03 20:18 57.50880 -1.90923 24992 ft 470 kts 41°
2026-05-03 20:19 57.53371 -1.87010 24990 ft 467 kts 33°
2026-05-03 20:19 57.56143 -1.83895 24992 ft 464 kts 24°
2026-05-03 20:19 57.59123 -1.81653 24992 ft 461 kts 15°
2026-05-03 20:19 57.62237 -1.80273 25003 ft 459 kts
2026-05-03 20:20 57.65389 -1.79331 25012 ft 459 kts
2026-05-03 20:20 57.68559 -1.78621 25003 ft 459 kts
2026-05-03 20:20 57.71736 -1.78045 24998 ft 459 kts
2026-05-03 20:20 57.74917 -1.77506 24996 ft 459 kts
2026-05-03 20:21 57.78093 -1.76936 24996 ft 460 kts
2026-05-03 20:21 57.81278 -1.76307 24996 ft 460 kts
2026-05-03 20:21 57.84461 -1.75627 24999 ft 461 kts
2026-05-03 20:21 57.87643 -1.74924 24997 ft 461 kts
2026-05-03 20:22 57.90784 -1.74221 24999 ft 461 kts
2026-05-03 20:22 57.93967 -1.73506 25013 ft 461 kts
2026-05-03 20:22 57.97154 -1.72794 25005 ft 461 kts
2026-05-03 20:22 58.00344 -1.72084 25001 ft 462 kts
2026-05-03 20:23 58.03538 -1.71377 24995 ft 462 kts
2026-05-03 20:23 58.06728 -1.70679 24995 ft 462 kts
2026-05-03 20:23 58.09923 -1.69984 24995 ft 462 kts
2026-05-03 20:23 58.13120 -1.69284 24995 ft 462 kts
2026-05-03 20:24 58.16313 -1.68579 24995 ft 462 kts
2026-05-03 20:24 58.19509 -1.67871 25023 ft 462 kts
2026-05-03 20:24 58.22705 -1.67162 25009 ft 463 kts
2026-05-03 20:24 58.25907 -1.66449 24993 ft 463 kts
2026-05-03 20:25 58.29109 -1.65733 24990 ft 464 kts
2026-05-03 20:25 58.32312 -1.65017 24982 ft 464 kts
2026-05-03 20:25 58.35520 -1.64300 24982 ft 464 kts
2026-05-03 20:25 58.38731 -1.63580 24987 ft 465 kts
2026-05-03 20:26 58.41940 -1.62861 24988 ft 465 kts
2026-05-03 20:26 58.45153 -1.62138 24987 ft 465 kts
2026-05-03 20:26 58.48364 -1.61413 25011 ft 465 kts
2026-05-03 20:26 58.51580 -1.60690 25002 ft 466 kts
2026-05-03 20:27 58.54798 -1.59969 24994 ft 466 kts
2026-05-03 20:27 58.58019 -1.59244 24991 ft 466 kts
2026-05-03 20:27 58.61241 -1.58516 24990 ft 466 kts
2026-05-03 20:27 58.64464 -1.57782 24989 ft 466 kts
2026-05-03 20:28 58.67685 -1.57048 24985 ft 467 kts
2026-05-03 20:28 58.70902 -1.56312 25014 ft 465 kts
2026-05-03 20:28 58.74112 -1.55576 25025 ft 463 kts
2026-05-03 20:28 58.77307 -1.54836 25026 ft 462 kts
2026-05-03 20:29 58.80492 -1.54096 25019 ft 460 kts
2026-05-03 20:29 58.83668 -1.53361 25017 ft 459 kts
2026-05-03 20:29 58.86838 -1.52634 25015 ft 459 kts
2026-05-03 20:29 58.90006 -1.51915 25012 ft 458 kts
2026-05-03 20:30 58.93169 -1.51195 24976 ft 455 kts
2026-05-03 20:30 58.96291 -1.50474 24127 ft 452 kts
2026-05-03 20:30 58.99431 -1.49741 22889 ft 455 kts
2026-05-03 20:30 59.02585 -1.49007 21654 ft 458 kts
2026-05-03 20:31 59.05729 -1.48265 20731 ft 452 kts
2026-05-03 20:31 59.08814 -1.47167 19846 ft 452 kts 11°
2026-05-03 20:31 59.11813 -1.45411 18974 ft 448 kts 12°
2026-05-03 20:31 59.14776 -1.43658 18086 ft 443 kts 12°
2026-05-03 20:32 59.17704 -1.41915 17122 ft 437 kts 12°
2026-05-03 20:32 59.20589 -1.40186 16230 ft 431 kts 12°
2026-05-03 20:32 59.23433 -1.38479 15374 ft 424 kts 13°
2026-05-03 20:32 59.26239 -1.36798 14553 ft 419 kts 13°
2026-05-03 20:33 59.29006 -1.35141 13796 ft 413 kts 13°
2026-05-03 20:33 59.31738 -1.33503 13008 ft 408 kts 13°
2026-05-03 20:33 59.34432 -1.31882 12275 ft 402 kts 13°
2026-05-03 20:33 59.37046 -1.30305 12008 ft 382 kts 13°
2026-05-03 20:34 59.39510 -1.28808 11946 ft 359 kts 13°
2026-05-03 20:34 59.41817 -1.27398 11929 ft 338 kts 13°
2026-05-03 20:34 59.44012 -1.26059 11803 ft 323 kts 12°
2026-05-03 20:34 59.46090 -1.24797 11672 ft 310 kts 12°
2026-05-03 20:35 59.48119 -1.23571 11503 ft 301 kts 12°
2026-05-03 20:35 59.50133 -1.22362 11176 ft 297 kts 12°
2026-05-03 20:35 59.52076 -1.21192 10840 ft 295 kts 12°
2026-05-03 20:35 59.54033 -1.20004 10495 ft 293 kts 12°
2026-05-03 20:36 59.55976 -1.18818 10150 ft 292 kts 12°
2026-05-03 20:36 59.57908 -1.17636 9807 ft 290 kts 12°
2026-05-03 20:36 59.59829 -1.16461 9454 ft 288 kts 12°
2026-05-03 20:36 59.61733 -1.15293 9119 ft 285 kts 12°
2026-05-03 20:37 59.63621 -1.14134 8769 ft 283 kts 12°
2026-05-03 20:37 59.65493 -1.12988 8418 ft 281 kts 12°
2026-05-03 20:37 59.67353 -1.11853 8075 ft 279 kts 12°
2026-05-03 20:37 59.69198 -1.10718 7741 ft 277 kts 12°
2026-05-03 20:38 59.71028 -1.09588 7402 ft 275 kts 12°
2026-05-03 20:38 59.72848 -1.08464 7063 ft 273 kts 12°
2026-05-03 20:38 59.74652 -1.07350 6733 ft 271 kts 12°
2026-05-03 20:38 59.76449 -1.06242 6420 ft 269 kts 12°
2026-05-03 20:39 59.78216 -1.05149 6214 ft 262 kts 12°
2026-05-03 20:39 59.79921 -1.04089 6081 ft 253 kts 12°
2026-05-03 20:39 59.81579 -1.03061 5868 ft 247 kts 12°
2026-05-03 20:39 59.83208 -1.02051 5490 ft 244 kts 12°
2026-05-03 20:40 59.84817 -1.01052 4936 ft 242 kts 12°
2026-05-03 20:40 59.86425 -1.00054 4324 ft 241 kts 12°
2026-05-03 20:40 59.88038 -0.99456 3717 ft 230 kts 348°
2026-05-03 20:40 59.89398 -1.00730 3198 ft 213 kts 309°
2026-05-03 20:41 59.89905 -1.03396 2673 ft 211 kts 269°
2026-05-03 20:41 59.89697 -1.06208 2315 ft 198 kts 263°
2026-05-03 20:41 59.89506 -1.08824 2036 ft 184 kts 263°
2026-05-03 20:41 59.89338 -1.11242 1818 ft 168 kts 263°
2026-05-03 20:42 59.89186 -1.13453 1560 ft 155 kts 263°
2026-05-03 20:42 59.89043 -1.15526 1360 ft 149 kts 263°
2026-05-03 20:42 59.88902 -1.17562 1147 ft 143 kts 263°
2026-05-03 20:42 59.88776 -1.19385 953 ft 126 kts 263°
2026-05-03 20:43 59.88656 -1.21085 758 ft 121 kts 262°
2026-05-03 20:43 59.88537 -1.22765 599 ft 123 kts 263°
2026-05-03 20:43 59.88422 -1.24479 451 ft 118 kts 263°
2026-05-03 20:43 59.88323 -1.26121 299 ft 123 kts 264°
2026-05-03 20:44 59.88237 -1.27834 131 ft 124 kts 262°
2026-05-03 20:44 59.88149 -1.29356 44 ft 96 kts 264°
2026-05-03 20:44 59.88103 -1.30123 42 ft 16 kts 252°
2026-05-03 20:44 59.88108 -1.30161 42 ft 4 kts 68°
2026-05-03 20:45 59.88108 -1.29972 47 ft 17 kts 111°
2026-05-03 20:45 59.88011 -1.29786 43 ft 22 kts 140°
2026-05-03 20:45 59.87888 -1.29580 43 ft 25 kts 140°
2026-05-03 20:45 59.87738 -1.29384 46 ft 27 kts 143°
2026-05-03 20:46 59.87611 -1.29192 44 ft 14 kts 143°
2026-05-03 20:46 59.87600 -1.29034 44 ft 13 kts 78°
2026-05-03 20:46 59.87627 -1.28863 43 ft 1 kts 51°
2026-05-03 20:46 59.87635 -1.28843 44 ft 4 kts 51°
2026-05-03 20:47 59.87670 -1.28815 44 ft 7 kts
2026-05-03 20:47 59.87686 -1.28832 44 ft 0 kts 317°